Content
SEND FEEDBACK

Daily
Averages
Monthly
Summary
United States of America

MERIZO, GUAM


Home > North America > United States > Guam
Elevation: 10 feet     Latitude: 13 14N     Longitude: 144 39E

WEATHER
 
SELECT A DAY
Number of Records: 341,631;   Date Range: 1/1/95 - 7/20/14
 
SHARE

PRINT THIS DATA

[ ← Previous Day ]
WEATHER ALMANAC - JANUARY 2, 2013
[ Next Day → ]
[ °C ]   °F
Weather ElementAverageHighLow
Temperature80.3 °F84.2 °F (10:19 am)77 °F (3:23 am)
Dewpoint76.4 °F78.8 °F (1:56 pm)71.6 °F (3:23 am)
Humidity88.3 %95 % (12:55 am)79 % (10:19 am)
Barometer29.85 in29.89 in (8:38 am)29.81 in (2:23 pm)
Wind Speed17.7 mph26.5 mph (3:13 am)
Wind Gust29.9 mph (3:13 am)
Weather ElementAverage
Visibility9.2 mi
Wind DirectionENE (72.5 °)

Weather ElementTotal
Precipitation0.15 in
Cooling Degree Days15.6 (Base 65)
Growing Degree Days30.6 (Base 50)
Averaged from 161 records on January 2, 2013
WEATHER CONDITIONS BREAKOUT
WIND DIRECTION BREAKOUT
WEATHER BY HOUR - JANUARY 2, 2013
[ °C ]   °F
Local TimeTemperatureDewpointHumidityBarometerVisibilityWind DirectionWind SpeedGust SpeedPrecipitationEventsConditions
12:18 AM78.8 °F77.0 °F94 %29.87 in10.0 miEast (80°)13.8 mphMostly Cloudy
12:37 AM78.8 °F77.0 °F94 %29.86 in9.0 miEast (80°)13.8 mphLight Drizzle
12:44 AM78.8 °F77.0 °F94 %29.86 in7.0 miEast (90°)12.7 mphLight Drizzle
12:46 AM78.8 °F77.0 °F94 %29.86 in7.0 miEast (100°)11.5 mphLight Drizzle
12:49 AM78.8 °F77.0 °F94 %29.86 in9.0 miEast (80°)12.7 mphMostly Cloudy
12:55 AM79.2 °F77.5 °F95 %29.86 in10.0 miEast (80°)17.3 mph0.00 inOvercast
1:04 AM78.8 °F77.0 °F94 %29.86 in10.0 miEast (80°)13.8 mphOvercast
1:14 AM78.8 °F77.0 °F94 %29.86 in10.0 miEast (80°)17.3 mphMostly Cloudy
1:17 AM78.8 °F77.0 °F94 %29.85 in10.0 miEast (80°)15.0 mphMostly Cloudy
1:32 AM78.8 °F77.0 °F94 %29.85 in10.0 miEast (80°)15.0 mphMostly Cloudy
1:34 AM78.8 °F77.0 °F94 %29.85 in10.0 miENE (70°)13.8 mphMostly Cloudy
1:40 AM78.8 °F77.0 °F94 %29.85 in10.0 miENE (70°)18.4 mphMostly Cloudy
1:55 AM79.2 °F76.8 °F92 %29.84 in10.0 miENE (70°)17.3 mphMostly Cloudy
2:55 AM79.5 °F76.1 °F89 %29.83 in10.0 miEast (80°)16.1 mph25.3 mphMostly Cloudy
2:59 AM80.6 °F77.0 °F89 %29.83 in10.0 miENE (70°)17.3 mphLight Drizzle
3:08 AM78.8 °F77.0 °F94 %29.83 in10.0 miENE (70°)18.4 mph26.5 mphMostly Cloudy
3:13 AM78.8 °F77.0 °F94 %29.83 in3.0 miEast (80°)26.5 mph29.9 mphRainRain
3:23 AM77.0 °F71.6 °F83 %29.83 in7.0 miEast (80°)19.6 mph25.3 mphRainLight Rain
3:25 AM77.0 °F71.6 °F83 %29.83 in10.0 miEast (80°)17.3 mph25.3 mphScattered Clouds
3:55 AM78.4 °F75.6 °F91 %29.83 in10.0 miENE (70°)13.8 mph0.04 inScattered Clouds
4:09 AM78.8 °F77.0 °F94 %29.83 in10.0 miEast (80°)16.1 mphMostly Cloudy
4:35 AM78.8 °F77.0 °F94 %29.83 in10.0 miEast (80°)15.0 mphMostly Cloudy
4:36 AM78.8 °F75.2 °F89 %29.83 in10.0 miEast (80°)15.0 mphScattered Clouds
4:47 AM78.8 °F75.2 °F89 %29.83 in10.0 miEast (90°)16.1 mphMostly Cloudy
4:48 AM78.8 °F75.2 °F89 %29.83 in10.0 miEast (90°)16.1 mphMostly Cloudy
4:49 AM78.8 °F75.2 °F89 %29.83 in10.0 miEast (80°)15.0 mphMostly Cloudy
4:51 AM78.8 °F75.2 °F89 %29.83 in10.0 miENE (70°)16.1 mph23.0 mphMostly Cloudy
4:55 AM79.0 °F75.9 °F90 %29.83 in10.0 miEast (80°)16.1 mph23.0 mphMostly Cloudy
4:59 AM78.8 °F75.2 °F89 %29.83 in10.0 miEast (80°)15.0 mph23.0 mphMostly Cloudy
5:01 AM78.8 °F75.2 °F89 %29.83 in10.0 miEast (80°)17.3 mph23.0 mphScattered Clouds
5:08 AM78.8 °F75.2 °F89 %29.83 in10.0 miEast (80°)16.1 mphMostly Cloudy
5:42 AM78.8 °F75.2 °F89 %29.84 in10.0 miENE (70°)17.3 mphMostly Cloudy
5:55 AM79.2 °F75.9 °F90 %29.84 in10.0 miENE (70°)16.1 mphMostly Cloudy
5:59 AM78.8 °F75.2 °F89 %29.84 in10.0 miENE (70°)16.1 mphMostly Cloudy
6:02 AM78.8 °F77.0 °F94 %29.84 in10.0 miENE (70°)16.1 mphMostly Cloudy
6:07 AM78.8 °F75.2 °F89 %29.85 in10.0 miENE (70°)18.4 mphMostly Cloudy
6:26 AM78.8 °F75.2 °F89 %29.85 in10.0 miENE (70°)17.3 mphScattered Clouds
6:35 AM78.8 °F77.0 °F94 %29.85 in10.0 miEast (80°)16.1 mphMostly Cloudy
6:37 AM78.8 °F77.0 °F94 %29.85 in10.0 miENE (70°)18.4 mph24.2 mphMostly Cloudy
6:42 AM78.8 °F75.2 °F89 %29.85 in10.0 miENE (70°)20.7 mph24.2 mphMostly Cloudy
6:44 AM78.8 °F75.2 °F89 %29.85 in10.0 miENE (70°)18.4 mph24.2 mphScattered Clouds
6:54 AM78.8 °F77.0 °F94 %29.85 in10.0 miENE (70°)18.4 mphMostly Cloudy
6:55 AM79.3 °F76.3 °F90 %29.86 in10.0 miENE (70°)17.3 mphMostly Cloudy
7:03 AM78.8 °F77.0 °F94 %29.86 in10.0 miENE (70°)17.3 mphMostly Cloudy
7:06 AM78.8 °F77.0 °F94 %29.86 in10.0 miENE (70°)20.7 mphScattered Clouds
7:50 AM80.6 °F77.0 °F89 %29.87 in10.0 miENE (70°)17.3 mph23.0 mphMostly Cloudy
7:54 AM80.6 °F77.0 °F89 %29.87 in10.0 miENE (70°)18.4 mphScattered Clouds
7:55 AM80.1 °F76.6 °F89 %29.87 in10.0 miENE (70°)17.3 mphScattered Clouds
8:00 AM80.6 °F77.0 °F89 %29.87 in10.0 miEast (80°)16.1 mphMostly Cloudy
8:02 AM80.6 °F77.0 °F89 %29.87 in10.0 miENE (70°)18.4 mphMostly Cloudy
8:12 AM80.6 °F77.0 °F89 %29.88 in10.0 miENE (70°)18.4 mphMostly Cloudy
8:13 AM80.6 °F77.0 °F89 %29.88 in10.0 miEast (80°)17.3 mphScattered Clouds
8:19 AM80.6 °F77.0 °F89 %29.88 in10.0 miENE (70°)17.3 mphMostly Cloudy
8:32 AM80.6 °F77.0 °F89 %29.88 in10.0 miENE (70°)19.6 mph24.2 mphScattered Clouds
8:38 AM82.4 °F77.0 °F84 %29.89 in10.0 miENE (70°)18.4 mph24.2 mphMostly Cloudy
8:50 AM82.4 °F77.0 °F84 %29.89 in10.0 miENE (70°)20.7 mph25.3 mphMostly Cloudy
8:54 AM82.4 °F77.0 °F84 %29.89 in10.0 miENE (70°)19.6 mph25.3 mphScattered Clouds
8:55 AM81.9 °F77.0 °F85 %29.89 in10.0 miEast (80°)21.9 mph25.3 mphScattered Clouds
9:03 AM82.4 °F77.0 °F84 %29.89 in10.0 miEast (80°)16.1 mphMostly Cloudy
9:16 AM82.4 °F77.0 °F84 %29.89 in10.0 miENE (70°)18.4 mphMostly Cloudy
9:55 AM82.0 °F76.6 °F84 %29.89 in10.0 miENE (70°)23.0 mphMostly Cloudy
10:03 AM82.4 °F77.0 °F84 %29.89 in10.0 miENE (70°)20.7 mph26.5 mphMostly Cloudy
10:07 AM82.4 °F77.0 °F84 %29.89 in10.0 miENE (70°)20.7 mph26.5 mphMostly Cloudy
10:19 AM84.2 °F77.0 °F79 %29.88 in10.0 miENE (70°)21.9 mph26.5 mphScattered Clouds
10:22 AM84.2 °F77.0 °F79 %29.88 in10.0 miENE (60°)16.1 mph26.5 mphMostly Cloudy
10:23 AM84.2 °F77.0 °F79 %29.88 in10.0 miENE (60°)18.4 mph26.5 mphMostly Cloudy
10:55 AM83.5 °F77.4 °F82 %29.88 in10.0 miNE (50°)19.6 mph24.2 mphMostly Cloudy
11:27 AM84.2 °F77.0 °F79 %29.87 in10.0 miENE (70°)19.6 mphMostly Cloudy
11:29 AM84.2 °F77.0 °F79 %29.87 in10.0 miENE (70°)17.3 mph25.3 mphMostly Cloudy
11:33 AM84.2 °F77.0 °F79 %29.87 in10.0 miENE (70°)20.7 mph25.3 mphScattered Clouds
11:35 AM84.2 °F77.0 °F79 %29.87 in10.0 miENE (70°)20.7 mph25.3 mphMostly Cloudy
11:40 AM84.2 °F77.0 °F79 %29.87 in10.0 miENE (70°)21.9 mphMostly Cloudy
11:43 AM84.2 °F77.0 °F79 %29.86 in10.0 miENE (70°)20.7 mphMostly Cloudy
11:45 AM84.2 °F77.0 °F79 %29.86 in10.0 miENE (70°)21.9 mphMostly Cloudy
11:49 AM84.2 °F77.0 °F79 %29.86 in10.0 miENE (70°)20.7 mphScattered Clouds
11:51 AM84.2 °F77.0 °F79 %29.86 in10.0 miENE (70°)21.9 mphMostly Cloudy
11:55 AM83.7 °F76.8 °F80 %29.86 in10.0 miENE (70°)23.0 mph28.8 mphMostly Cloudy
11:58 AM84.2 °F77.0 °F79 %29.86 in10.0 miENE (70°)21.9 mph28.8 mphMostly Cloudy
12:00 PM84.2 °F77.0 °F79 %29.86 in10.0 miENE (70°)18.4 mph28.8 mphMostly Cloudy
12:10 PM82.4 °F77.0 °F84 %29.86 in10.0 miENE (70°)20.7 mph26.5 mphMostly Cloudy
12:24 PM82.4 °F77.0 °F84 %29.85 in10.0 miENE (70°)19.6 mph26.5 mphMostly Cloudy
12:25 PM82.4 °F77.0 °F84 %29.85 in10.0 miEast (80°)19.6 mph26.5 mphMostly Cloudy
12:38 PM82.4 °F75.2 °F79 %29.84 in10.0 miENE (70°)20.7 mph27.6 mphMostly Cloudy
12:45 PM82.4 °F77.0 °F84 %29.84 in6.0 miENE (70°)19.6 mph27.6 mphLight Drizzle
12:46 PM82.4 °F77.0 °F84 %29.84 in6.0 miENE (70°)20.7 mphLight Drizzle
12:55 PM81.0 °F77.4 °F89 %29.83 in9.0 miENE (70°)20.7 mph0.00 inRainLight Rain
12:56 PM80.6 °F77.0 °F89 %29.83 in10.0 miENE (70°)20.7 mphMostly Cloudy
1:03 PM80.6 °F75.2 °F84 %29.84 in2.5 miEast (90°)23.0 mph29.9 mphHaze
1:04 PM80.6 °F75.2 °F84 %29.83 in1.5 miEast (90°)21.9 mph29.9 mphHaze
1:05 PM78.8 °F75.2 °F89 %29.83 in1.2 miEast (90°)19.6 mph29.9 mphRainHeavy Rain
1:06 PM78.8 °F75.2 °F89 %29.83 in1.0 miEast (100°)18.4 mph29.9 mphRainHeavy Rain
1:10 PM77.0 °F73.4 °F89 %29.83 in1.0 miEast (90°)17.3 mph29.9 mphRainLight Rain
1:13 PM77.0 °F73.4 °F89 %29.83 in1.2 miEast (90°)17.3 mph29.9 mphRainLight Rain
1:14 PM77.0 °F73.4 °F89 %29.83 in1.8 miEast (90°)13.8 mphRainLight Rain
1:15 PM77.0 °F75.2 °F94 %29.83 in2.5 miEast (90°)12.7 mphRainLight Rain
1:16 PM77.0 °F75.2 °F94 %29.83 in3.0 miEast (100°)13.8 mphRainLight Rain
1:22 PM77.0 °F75.2 °F94 %29.83 in5.0 miEast (90°)13.8 mphRainLight Rain
1:24 PM77.0 °F75.2 °F94 %29.83 in7.0 miEast (90°)13.8 mphRainLight Rain
1:25 PM78.8 °F75.2 °F89 %29.83 in9.0 miEast (90°)15.0 mphMostly Cloudy
1:29 PM78.8 °F77.0 °F94 %29.83 in10.0 miEast (90°)11.5 mphScattered Clouds
1:55 PM82.2 °F78.1 °F87 %29.82 in9.0 miEast (80°)10.4 mph0.09 inPartly Cloudy
1:56 PM82.4 °F78.8 °F89 %29.82 in8.0 miENE (70°)11.5 mphRainLight Rain
2:07 PM80.6 °F77.0 °F89 %29.82 in10.0 miENE (70°)19.6 mph26.5 mphLight Drizzle
2:08 PM80.6 °F77.0 °F89 %29.82 in10.0 miENE (70°)19.6 mph26.5 mphMostly Cloudy
2:09 PM80.6 °F77.0 °F89 %29.82 in10.0 miENE (70°)18.4 mph26.5 mphScattered Clouds
2:11 PM82.4 °F78.8 °F89 %29.82 in10.0 miENE (60°)18.4 mph25.3 mphMostly Cloudy
2:23 PM82.4 °F78.8 °F89 %29.81 in10.0 miENE (70°)16.1 mphMostly Cloudy
2:28 PM82.4 °F77.0 °F84 %29.81 in10.0 miENE (70°)17.3 mph24.2 mphMostly Cloudy
2:30 PM82.4 °F77.0 °F84 %29.81 in10.0 miENE (70°)16.1 mph24.2 mphMostly Cloudy
2:52 PM82.4 °F77.0 °F84 %29.81 in10.0 miENE (70°)18.4 mphMostly Cloudy
2:55 PM82.9 °F77.7 °F84 %29.81 in10.0 miENE (70°)17.3 mph0.01 inMostly Cloudy
3:06 PM82.4 °F78.8 °F89 %29.81 in10.0 miENE (70°)18.4 mph24.2 mphScattered Clouds
3:10 PM82.4 °F77.0 °F84 %29.81 in5.0 miENE (70°)20.7 mph28.8 mphRainLight Rain
3:18 PM78.8 °F77.0 °F94 %29.81 in5.0 miENE (70°)20.7 mph28.8 mphRainLight Rain
3:27 PM78.8 °F77.0 °F94 %29.81 in10.0 miENE (70°)16.1 mph24.2 mphPartly Cloudy
3:49 PM80.6 °F77.0 °F89 %29.82 in10.0 miENE (70°)16.1 mph26.5 mphMostly Cloudy
3:55 PM81.0 °F76.8 °F87 %29.82 in10.0 miENE (70°)19.6 mph0.01 inMostly Cloudy
4:54 PM80.6 °F75.2 °F84 %29.82 in10.0 miENE (70°)17.3 mph23.0 mphMostly Cloudy
4:55 PM80.6 °F75.9 °F86 %29.82 in10.0 miENE (70°)18.4 mph23.0 mphMostly Cloudy
5:00 PM80.6 °F77.0 °F89 %29.82 in10.0 miENE (60°)16.1 mph23.0 mphMostly Cloudy
5:06 PM80.6 °F77.0 °F89 %29.82 in10.0 miENE (60°)16.1 mphMostly Cloudy
5:10 PM80.6 °F75.2 °F84 %29.83 in10.0 miENE (60°)18.4 mph24.2 mphMostly Cloudy
5:32 PM80.6 °F77.0 °F89 %29.82 in10.0 miENE (60°)18.4 mphMostly Cloudy
5:33 PM80.6 °F77.0 °F89 %29.83 in10.0 miENE (60°)18.4 mphMostly Cloudy
5:55 PM80.1 °F76.3 °F88 %29.83 in10.0 miENE (60°)17.3 mphMostly Cloudy
6:46 PM80.6 °F77.0 °F89 %29.84 in10.0 miENE (60°)19.6 mphMostly Cloudy
6:47 PM80.6 °F77.0 °F89 %29.84 in9.0 miENE (60°)18.4 mphMostly Cloudy
6:49 PM80.6 °F77.0 °F89 %29.84 in8.0 miENE (60°)16.1 mphRainLight Rain
6:55 PM79.9 °F76.3 °F89 %29.85 in8.0 miENE (60°)21.9 mph26.5 mph0.00 inRainLight Rain
6:56 PM80.6 °F77.0 °F89 %29.85 in8.0 miENE (60°)19.6 mph26.5 mphRainLight Rain
6:58 PM80.6 °F77.0 °F89 %29.85 in10.0 miENE (60°)18.4 mph26.5 mphMostly Cloudy
7:05 PM78.8 °F77.0 °F94 %29.85 in10.0 miENE (60°)18.4 mphMostly Cloudy
7:08 PM80.6 °F77.0 °F89 %29.85 in10.0 miENE (60°)18.4 mphMostly Cloudy
7:13 PM78.8 °F75.2 °F89 %29.85 in10.0 miENE (60°)18.4 mphMostly Cloudy
7:24 PM80.6 °F77.0 °F89 %29.86 in10.0 miENE (60°)19.6 mph25.3 mphMostly Cloudy
7:27 PM80.6 °F77.0 °F89 %29.85 in10.0 miENE (60°)19.6 mph25.3 mphMostly Cloudy
7:35 PM80.6 °F75.2 °F84 %29.86 in10.0 miENE (60°)19.6 mph25.3 mphMostly Cloudy
7:55 PM79.7 °F75.9 °F88 %29.86 in10.0 miENE (60°)16.1 mph25.3 mph0.00 inMostly Cloudy
8:47 PM80.6 °F77.0 °F89 %29.87 in10.0 miENE (60°)17.3 mphMostly Cloudy
8:48 PM80.6 °F77.0 °F89 %29.87 in10.0 miENE (70°)17.3 mphMostly Cloudy
8:55 PM79.9 °F76.3 °F89 %29.87 in10.0 miENE (60°)15.0 mphMostly Cloudy
9:03 PM78.8 °F75.2 °F89 %29.88 in10.0 miENE (60°)18.4 mphMostly Cloudy
9:20 PM80.6 °F77.0 °F89 %29.88 in10.0 miENE (70°)16.1 mphMostly Cloudy
9:26 PM78.8 °F77.0 °F94 %29.88 in10.0 miENE (60°)17.3 mphMostly Cloudy
9:31 PM78.8 °F75.2 °F89 %29.88 in10.0 miENE (60°)12.7 mphScattered Clouds
9:55 PM79.2 °F75.9 °F90 %29.88 in10.0 miENE (60°)15.0 mphScattered Clouds
9:58 PM78.8 °F75.2 °F89 %29.88 in10.0 miENE (70°)15.0 mphMostly Cloudy
10:40 PM78.8 °F75.2 °F89 %29.88 in10.0 miENE (70°)17.3 mphMostly Cloudy
10:41 PM78.8 °F75.2 °F89 %29.88 in10.0 miENE (70°)18.4 mphMostly Cloudy
10:54 PM78.8 °F77.0 °F94 %29.87 in10.0 miEast (80°)17.3 mphScattered Clouds
10:55 PM79.5 °F76.5 °F90 %29.87 in10.0 miEast (80°)17.3 mphScattered Clouds
11:01 PM78.8 °F77.0 °F94 %29.87 in10.0 miENE (70°)13.8 mphMostly Cloudy
11:03 PM78.8 °F77.0 °F94 %29.87 in10.0 miENE (70°)15.0 mphMostly Cloudy
11:04 PM78.8 °F77.0 °F94 %29.87 in10.0 miENE (70°)15.0 mphMostly Cloudy
11:13 PM78.8 °F77.0 °F94 %29.87 in9.0 miEast (80°)19.6 mph25.3 mphMostly Cloudy
11:22 PM78.8 °F75.2 °F89 %29.87 in10.0 miEast (80°)18.4 mphMostly Cloudy
11:25 PM78.8 °F75.2 °F89 %29.87 in10.0 miENE (70°)18.4 mphMostly Cloudy
11:28 PM78.8 °F75.2 °F89 %29.87 in10.0 miEast (80°)16.1 mph24.2 mphMostly Cloudy
11:53 PM78.8 °F75.2 °F89 %29.87 in10.0 miEast (80°)20.7 mph27.6 mphMostly Cloudy
11:55 PM79.0 °F75.2 °F88 %29.87 in10.0 miEast (80°)19.6 mph27.6 mphMostly Cloudy
11:57 PM78.8 °F75.2 °F89 %29.87 in10.0 miENE (70°)18.4 mph27.6 mphMostly Cloudy
Hourly data recorded from PGUA, located miles away from Merizo, Guam







STORIES FROM OUR PARTNERS